If you wish to contribute or participate in the discussions about articles you are invited to join SKYbrary as a registered user

 Actions

Annette Island Airport

From SKYbrary Wiki

PANT
Airport
ICAO: PANT – IATA: ANN
Summary
Name Annette Island Airport
Region North America
Territory Alaska US.gif
Location Annette Island, Alaska
Serving Annette Island
Elevation 36.271 m
119 ft
119 ft36.271 m
Type medium airport
Coordinates 55° 2' 32.77" N, 131° 34' 20.04" W
Runways
Designator Length Width Surface ROPS
2/20 1740 m5,708.661 ft
46 m150.919 ft
GVL /
12/30 2284 m7,493.438 ft
46 m150.919 ft
ASP /


METAR
Observation PANT 191053Z AUTO 00000KT 10SM CLR 03/03 A3005 RMK SLP176 T00330033 TSNO VIA AUTODIAL
Station Annette, Annette Island Airport
Date/Time 19 March 2019 10:53:00
Wind direction
Wind speed 00 kts
Lowest cloud amount n/a
Temperature 3.3°C
Dew point 3.3°C
Humidity 100%
QNH hPa
Weather condition n/a

Maps

Terrain

Loading map...

Airport Layout

Loading map...


Accidents & Serious Incidents at or in vicinity of PANT

None on SKYbrary